GW2467 Weather Reports


time (UTC)temp
C
wind
direction
speed
KPH
gust
KPH
rain 1hr
cm
rain 24hr
cm
rain mn
cm
humidity
%
barometer
mb
20260507130928 10 125 0.0 0.0 0.00 0.00 0.00 98 997.2
20260507130425 10 126 0.0 0.0 0.00 0.00 0.00 98 997.2
20260507125923 10 126 0.0 0.0 0.00 0.00 0.00 98 997.2
20260507125421 10 126 0.0 0.0 0.00 0.00 0.00 98 997.0
20260507124918 11 125 0.0 0.0 0.00 0.00 0.00 98 997.1
20260507124414 11 123 0.0 0.0 0.00 0.00 0.00 98 997.1
20260507123913 11 124 0.0 0.0 0.00 0.00 0.00 98 997.0
20260507123410 11 126 0.0 0.0 0.00 0.00 0.00 98 997.0
20260507122906 11 126 0.0 0.0 0.00 0.00 0.00 98 996.9
20260507122401 10 126 0.0 0.0 0.00 0.00 0.00 98 997.0
20260507121858 10 126 0.0 0.0 0.00 0.00 0.00 98 996.9
20260507121353 11 126 0.0 0.0 0.00 0.00 0.00 98 996.9
20260507120850 11 126 0.0 0.0 0.00 0.00 0.00 98 996.9
20260507120346 11 126 0.0 0.0 0.00 0.00 0.00 98 997.0
20260507115843 11 126 0.0 0.0 0.00 0.00 0.00 98 996.9
20260507115338 11 126 0.0 0.0 0.00 0.00 0.00 98 996.8
20260507114834 11 124 0.0 0.0 0.00 0.00 0.00 98 997.0
20260507114332 11 124 0.0 0.0 0.00 0.00 0.00 98 996.9
20260507113829 11 124 0.0 0.0 0.00 0.00 0.00 98 997.0
20260507113326 10 126 0.0 0.0 0.00 0.00 0.00 97 997.0
20260507112823 10 126 0.0 0.0 0.00 0.00 0.00 97 997.1
20260507112320 11 126 0.0 0.0 0.00 0.00 0.00 97 996.9
20260507111818 11 126 0.0 0.0 0.00 0.00 0.00 97 997.0
20260507111314 11 126 0.0 0.0 0.00 0.00 0.00 97 997.0
20260507110811 11 126 0.0 0.0 0.00 0.00 0.00 98 997.0
20260507110307 11 126 0.0 0.0 0.00 0.00 0.00 97 997.2
20260507105804 11 126 0.0 0.0 0.00 0.00 0.00 97 997.0
20260507105300 11 126 0.0 0.0 0.00 0.00 0.00 97 997.0
20260507104758 11 126 0.0 0.0 0.00 0.00 0.00 97 997.0
20260507104254 11 126 0.0 0.0 0.00 0.00 0.00 97 997.2
20260507103750 11 126 0.0 0.0 0.00 0.00 0.00 97 997.3
20260507103246 11 124 0.0 0.0 0.00 0.00 0.00 97 997.3
20260507102743 11 124 0.0 0.0 0.00 0.00 0.00 97 997.2
20260507102240 11 124 0.0 0.0 0.00 0.00 0.00 97 997.3
20260507101736 11 124 0.0 0.0 0.00 0.00 0.00 97 997.4
20260507101231 11 124 0.0 0.0 0.00 0.00 0.00 97 997.4
20260507100728 11 123 0.0 0.0 0.00 0.00 0.00 97 997.5
20260507100227 11 123 0.0 0.0 0.00 0.00 0.00 97 997.5
20260507095724 11 123 0.0 0.0 0.00 0.00 0.00 97 997.2
20260507095220 11 123 0.0 0.0 0.00 0.00 0.00 96 997.4
20260507094717 11 123 0.0 0.0 0.00 0.00 0.00 96 997.4
20260507094215 11 109 0.0 0.0 0.00 0.00 0.00 96 997.6
20260507093711 11 129 0.0 0.0 0.00 0.00 0.00 96 997.4
20260507093210 11 125 0.0 0.0 0.00 0.00 0.00 96 997.5
20260507092707 11 164 0.0 0.0 0.00 0.00 0.00 96 997.7
20260507092203 11 164 0.0 0.0 0.00 0.00 0.00 96 997.6
20260507091659 11 164 0.0 0.0 0.00 0.00 0.00 96 997.7
20260507091156 11 163 0.0 0.0 0.00 0.00 0.00 95 997.9
20260507090651 11 163 0.0 0.0 0.00 0.00 0.00 95 997.8
20260507090149 11 163 0.0 0.0 0.00 0.00 0.00 95 997.8
20260507085646 12 163 0.0 0.0 0.00 0.00 0.00 95 997.8
20260507085143 12 163 0.0 0.0 0.00 0.00 0.00 95 997.8
20260507084640 12 163 0.0 0.0 0.00 0.00 0.00 95 998.1
20260507084136 12 163 0.0 0.0 0.00 0.00 0.00 95 998.0
20260507083633 12 163 0.0 0.0 0.00 0.00 0.00 95 998.1
20260507083130 12 163 0.0 0.0 0.00 0.00 0.00 95 998.0
20260507082625 12 163 0.0 0.0 0.00 0.00 0.00 94 998.2
20260507082122 12 163 0.0 0.0 0.00 0.00 0.00 94 998.1
20260507081619 12 163 0.0 0.0 0.00 0.00 0.00 94 998.3
20260507081115 12 163 0.0 0.0 0.00 0.00 0.00 94 998.3
20260507080612 12 163 0.0 0.0 0.00 0.00 0.00 94 998.2
20260507080108 12 163 0.0 0.0 0.00 0.00 0.00 94 998.4
20260507075603 12 163 0.0 0.0 0.00 0.00 0.00 93 998.2
20260507075100 12 163 0.0 0.0 0.00 0.00 0.00 93 998.3
20260507074557 12 163 0.0 0.0 0.00 0.00 0.00 92 998.2
20260507074055 12 163 0.0 0.0 0.00 0.00 0.00 92 998.4
20260507073550 12 163 0.0 0.0 0.00 0.00 0.00 92 998.2
20260507073047 12 164 0.0 0.0 0.00 0.00 0.00 92 998.2
20260507072545 12 163 0.0 0.0 0.00 0.00 0.00 91 998.3
20260507072042 12 164 0.0 0.0 0.00 0.00 0.00 91 998.1
20260507071539 12 163 0.0 0.0 0.00 0.00 0.00 90 998.4
20260507071036 12 163 0.0 0.0 0.00 0.00 0.00 90 998.3
20260507070533 12 163 0.0 0.0 0.00 0.00 0.00 90 998.5
20260507070030 13 163 0.0 0.0 0.00 0.00 0.00 90 998.5
20260507065526 13 163 0.0 0.0 0.00 0.00 0.00 90 998.6
20260507065023 13 163 0.0 0.0 0.00 0.00 0.00 90 998.4
20260507064521 13 163 0.0 0.0 0.00 0.00 0.00 89 998.4
20260507064020 13 163 0.0 0.0 0.00 0.00 0.00 89 998.7
20260507063516 13 163 0.0 0.0 0.00 0.00 0.00 89 998.8
20260507063014 13 163 0.0 0.0 0.00 0.00 0.00 89 998.9
20260507062510 13 160 0.0 0.0 0.00 0.00 0.00 89 998.9
20260507062008 13 159 0.0 0.0 0.00 0.00 0.00 89 998.5
20260507061505 13 159 0.0 0.0 0.00 0.00 0.00 88 998.7
20260507061004 13 159 0.0 0.0 0.00 0.00 0.00 87 998.8
20260507060501 13 159 0.0 0.0 0.00 0.00 0.00 87 998.8
20260507055957 13 159 0.0 0.0 0.00 0.00 0.00 87 998.7
20260507055452 13 159 0.0 0.0 0.00 0.00 0.00 87 998.5
20260507054949 13 159 0.0 0.0 0.00 0.00 0.00 87 998.5
20260507054445 13 160 0.0 0.0 0.00 0.00 0.00 86 998.5
20260507053942 13 160 0.0 0.0 0.00 0.00 0.00 87 998.4
20260507053440 13 160 0.0 0.0 0.00 0.00 0.00 87 998.4
20260507052938 13 160 0.0 0.0 0.00 0.00 0.00 86 998.7
20260507052436 14 160 0.0 0.0 0.00 0.00 0.00 86 998.4
20260507051933 14 158 0.0 0.0 0.00 0.00 0.00 86 998.5
20260507051430 14 158 0.0 0.0 0.00 0.00 0.00 85 998.7
20260507050927 14 158 0.0 0.0 0.00 0.00 0.00 86 998.6
20260507050423 14 150 0.0 0.0 0.00 0.00 0.00 86 998.4
20260507045920 14 147 0.0 0.0 0.00 0.00 0.00 85 998.4
20260507045417 15 163 0.0 0.0 0.00 0.00 0.00 84 998.6
20260507044914 15 172 0.0 0.0 0.00 0.00 0.00 84 998.6
20260507044411 15 141 0.0 0.0 0.00 0.00 0.00 85 998.5
20260507043907 15 169 0.0 0.0 0.00 0.00 0.00 85 998.7
20260507043403 15 130 0.0 1.6 0.00 0.00 0.00 84 998.3
20260507042859 15 185 0.0 0.0 0.00 0.00 0.00 84 998.3
20260507042356 15 172 0.0 0.0 0.00 0.00 0.00 84 998.5
20260507041852 15 171 0.0 1.6 0.00 0.00 0.00 83 998.4
20260507041349 15 221 1.6 1.6 0.00 0.00 0.00 83 998.2
20260507040846 15 224 0.0 1.6 0.00 0.00 0.00 82 998.2
20260507040342 15 195 1.6 1.6 0.00 0.00 0.00 82 998.0
20260507035838 15 200 0.0 1.6 0.00 0.00 0.00 81 998.1
20260507035334 16 207 1.6 1.6 0.00 0.00 0.00 80 998.1
20260507034832 16 185 1.6 3.2 0.00 0.00 0.00 80 998.2
20260507034328 16 237 1.6 3.2 0.00 0.00 0.00 80 998.2
20260507033826 16 251 4.8 4.8 0.00 0.00 0.00 80 998.0
20260507033324 16 179 0.0 0.0 0.00 0.00 0.00 79 997.9
20260507032821 16 219 3.2 4.8 0.00 0.00 0.00 79 998.1
20260507032317 16 248 1.6 1.6 0.00 0.00 0.00 79 997.8
20260507031814 16 252 1.6 1.6 0.00 0.00 0.00 79 997.8
20260507031311 16 191 0.0 1.6 0.00 0.00 0.00 79 997.7
20260507030807 16 171 3.2 4.8 0.00 0.00 0.00 79 997.6
20260507030305 16 207 1.6 1.6 0.00 0.00 0.00 78 997.8
20260507025801 16 261 1.6 1.6 0.00 0.00 0.00 77 997.7
20260507025259 16 204 0.0 1.6 0.00 0.00 0.00 77 997.7
20260507024757 16 170 4.8 8.0 0.00 0.00 0.00 77 997.5
20260507024253 17 221 1.6 1.6 0.00 0.00 0.00 76 997.6
20260507023749 17 168 1.6 1.6 0.00 0.00 0.00 75 997.5
20260507023246 17 245 1.6 3.2 0.00 0.00 0.00 74 997.5
20260507022743 17 227 1.6 3.2 0.00 0.00 0.00 74 997.5
20260507022239 17 286 4.8 8.0 0.00 0.00 0.00 74 997.5
20260507021736 17 286 8.0 11.3 0.00 0.00 0.00 72 997.5
20260507021231 18 190 1.6 1.6 0.00 0.00 0.00 71 997.3
20260507020730 18 328 3.2 3.2 0.00 0.00 0.00 69 997.2
20260507020226 18 281 3.2 3.2 0.00 0.00 0.00 69 997.3
20260507015724 18 324 6.4 8.0 0.00 0.00 0.00 67 997.3
20260507015221 19 254 4.8 4.8 0.00 0.00 0.00 66 997.3
20260507014717 19 204 1.6 3.2 0.00 0.00 0.00 66 997.2
20260507014214 19 252 1.6 3.2 0.00 0.00 0.00 66 997.2
20260507013710 20 246 3.2 3.2 0.00 0.00 0.00 64 997.3
20260507013208 20 179 0.0 1.6 0.00 0.00 0.00 64 997.1
20260507012705 20 156 1.6 3.2 0.00 0.00 0.00 63 997.2
20260507012200 20 280 4.8 8.0 0.00 0.00 0.00 62 997.1
20260507011659 20 204 4.8 8.0 0.00 0.00 0.00 62 997.1
20260507011155 20 253 3.2 3.2 0.00 0.00 0.00 61 996.9
20260507010654 20 214 3.2 3.2 0.00 0.00 0.00 60 997.3
20260507010150 20 260 6.4 9.7 0.00 0.00 0.00 59 997.1
20260507005648 20 17 4.8 8.0 0.00 0.00 0.00 60 997.1
20260507005144 21 271 4.8 9.7 0.00 0.00 0.00 60 997.1
20260507004641 20 141 3.2 4.8 0.00 0.00 0.00 61 997.0
20260507004139 21 341 4.8 4.8 0.00 0.00 0.00 60 997.1
20260507003635 21 245 3.2 4.8 0.00 0.00 0.00 59 997.1
20260507003130 21 265 4.8 8.0 0.00 0.00 0.00 58 996.9
20260507002627 21 250 4.8 8.0 0.00 0.00 0.00 58 997.1
20260507002122 21 254 4.8 8.0 0.00 0.00 0.00 59 996.9
20260507001620 21 259 4.8 8.0 0.00 0.00 0.00 59 997.0
20260507001117 21 204 4.8 8.0 0.00 0.00 0.00 58 996.8
20260507000613 21 221 3.2 3.2 0.00 0.00 0.00 58 996.8
20260507000113 21 241 8.0 11.3 0.00 0.00 0.00 59 996.7
20260506235611 21 234 4.8 8.0 0.00 0.00 0.00 58 996.8
20260506235111 21 176 0.0 1.6 0.00 0.00 0.00 59 996.7
20260506234609 21 277 3.2 3.2 0.00 0.00 0.00 59 996.7
20260506234106 21 206 6.4 9.7 0.00 0.00 0.00 58 996.8
20260506233603 21 224 6.4 8.0 0.00 0.00 0.00 59 996.7
20260506233100 21 254 4.8 4.8 0.00 0.00 0.00 60 996.7
20260506232556 21 212 6.4 9.7 0.00 0.00 0.00 59 996.6
20260506232051 21 207 4.8 4.8 0.00 0.00 0.00 59 996.8
20260506231549 21 57 4.8 4.8 0.00 0.00 0.00 59 996.6
20260506231047 21 197 6.4 8.0 0.00 0.00 0.00 58 996.7
20260506230543 22 287 6.4 8.0 0.00 0.00 0.00 59 996.8
20260506230041 22 277 6.4 9.7 0.00 0.00 0.00 58 996.7
20260506225537 22 246 6.4 9.7 0.00 0.00 0.00 57 996.8
20260506225033 22 302 4.8 8.0 0.00 0.00 0.00 58 996.6
20260506224530 21 166 8.0 11.3 0.00 0.00 0.00 59 996.8
20260506224027 22 222 4.8 4.8 0.00 0.00 0.00 58 996.7
20260506223523 21 255 3.2 8.0 0.00 0.00 0.00 59 996.8
20260506223020 22 237 3.2 8.0 0.00 0.00 0.00 57 996.9
20260506222516 22 252 8.0 9.7 0.00 0.00 0.00 58 997.0
20260506222013 21 294 8.0 12.9 0.00 0.00 0.00 58 997.0
20260506221510 22 213 4.8 4.8 0.00 0.00 0.00 57 997.1
20260506221008 22 194 4.8 8.0 0.00 0.00 0.00 58 997.1
20260506220509 21 256 6.4 9.7 0.00 0.00 0.00 58 996.8
20260506220005 22 190 1.6 3.2 0.00 0.00 0.00 59 997.0
20260506215502 22 254 6.4 9.7 0.00 0.00 0.00 56 997.0
20260506214957 21 277 3.2 4.8 0.00 0.00 0.00 58 997.1
20260506214454 21 218 6.4 9.7 0.00 0.00 0.00 59 997.1
20260506213952 22 333 3.2 4.8 0.00 0.00 0.00 58 997.2
20260506213450 22 258 8.0 11.3 0.00 0.00 0.00 58 997.2
20260506212947 22 327 8.0 12.9 0.00 0.00 0.00 56 997.2
20260506212442 22 323 8.0 11.3 0.00 0.00 0.00 58 997.3
20260506211942 22 242 3.2 3.2 0.00 0.00 0.00 58 997.0
20260506211439 22 152 6.4 8.0 0.00 0.00 0.00 56 997.3
20260506210936 22 239 4.8 8.0 0.00 0.00 0.00 56 997.1
20260506210432 23 288 4.8 8.0 0.00 0.00 0.00 56 997.3
20260506205930 22 266 3.2 3.2 0.00 0.00 0.00 57 997.0
20260506205426 23 255 4.8 4.8 0.00 0.00 0.00 55 997.4
20260506204922 23 346 8.0 9.7 0.00 0.00 0.00 56 997.2
20260506204420 22 252 3.2 4.8 0.00 0.00 0.00 58 997.3
20260506203917 22 78 4.8 8.0 0.00 0.00 0.00 56 997.4
20260506203414 23 348 4.8 8.0 0.00 0.00 0.00 53 997.4
20260506202911 23 225 6.4 9.7 0.00 0.00 0.00 53 997.6
20260506202408 23 230 4.8 4.8 0.00 0.00 0.00 54 997.4
20260506201905 23 209 1.6 3.2 0.00 0.00 0.00 55 997.4
20260506201402 23 271 6.4 9.7 0.00 0.00 0.00 52 997.4
20260506200859 23 134 1.6 3.2 0.00 0.00 0.00 53 997.5
20260506200355 22 257 6.4 8.0 0.00 0.00 0.00 55 997.3
20260506195851 23 297 4.8 8.0 0.00 0.00 0.00 54 997.5
20260506195349 23 214 1.6 1.6 0.00 0.00 0.00 53 997.6
20260506194845 22 271 6.4 11.3 0.00 0.00 0.00 53 997.6
20260506194342 22 254 4.8 4.8 0.00 0.00 0.00 53 997.6
20260506193840 22 122 3.2 4.8 0.00 0.00 0.00 54 997.9
20260506193336 22 244 4.8 4.8 0.00 0.00 0.00 54 997.7
20260506192833 23 245 8.0 9.7 0.00 0.00 0.00 51 997.9
20260506192330 22 260 1.6 1.6 0.00 0.00 0.00 52 998.0
20260506191827 22 264 4.8 4.8 0.00 0.00 0.00 54 997.9
20260506191323 22 213 4.8 9.7 0.00 0.00 0.00 53 998.1
20260506190820 22 140 1.6 1.6 0.00 0.00 0.00 53 998.2
20260506190316 22 246 3.2 4.8 0.00 0.00 0.00 54 997.9
20260506185813 22 258 6.4 8.0 0.00 0.00 0.00 53 998.2
20260506185310 21 202 1.6 1.6 0.00 0.00 0.00 55 998.1
20260506184807 22 158 1.6 3.2 0.00 0.00 0.00 54 998.2
20260506184304 22 359 3.2 3.2 0.00 0.00 0.00 53 998.3
20260506183801 21 76 1.6 3.2 0.00 0.00 0.00 52 998.4
20260506183257 21 199 3.2 3.2 0.00 0.00 0.00 54 998.5
20260506182755 21 244 4.8 4.8 0.00 0.00 0.00 53 998.5
20260506182252 21 231 1.6 3.2 0.00 0.00 0.00 57 998.6
20260506181750 21 330 8.0 11.3 0.00 0.00 0.00 55 998.7
20260506181247 21 245 1.6 3.2 0.00 0.00 0.00 57 998.6
20260506180744 20 316 1.6 1.6 0.00 0.00 0.00 57 998.8
20260506180240 20 244 4.8 4.8 0.00 0.00 0.00 59 998.7
20260506175736 20 4 8.0 9.7 0.00 0.00 0.00 58 998.9
20260506175233 20 64 1.6 3.2 0.00 0.00 0.00 60 998.8
20260506174731 20 24 3.2 4.8 0.00 0.00 0.00 59 998.8
20260506174227 20 243 3.2 4.8 0.00 0.00 0.00 60 998.9
20260506173725 20 20 1.6 1.6 0.00 0.00 0.00 60 999.0
20260506173222 20 343 3.2 3.2 0.00 0.00 0.00 60 999.1
20260506172719 19 245 4.8 4.8 0.00 0.00 0.00 61 999.0
20260506172215 19 147 3.2 3.2 0.00 0.00 0.00 60 999.0
20260506171713 18 258 3.2 3.2 0.00 0.00 0.00 61 999.2
20260506171210 19 295 4.8 4.8 0.00 0.00 0.00 61 999.2
20260506170708 19 178 1.6 1.6 0.00 0.00 0.00 65 999.0
20260506170204 18 142 1.6 1.6 0.00 0.00 0.00 66 999.3
20260506165703 18 133 1.6 1.6 0.00 0.00 0.00 66 999.3
20260506165159 17 275 3.2 3.2 0.00 0.00 0.00 67 999.1
20260506164656 17 108 1.6 1.6 0.00 0.00 0.00 67 999.2
20260506164154 17 200 1.6 1.6 0.00 0.00 0.00 67 999.1
20260506163650 17 179 0.0 1.6 0.00 0.00 0.00 67 999.0
20260506163145 17 191 1.6 3.2 0.00 0.00 0.00 68 999.4
20260506162641 17 235 3.2 3.2 0.00 0.00 0.00 68 999.3
20260506162139 17 55 1.6 1.6 0.00 0.00 0.00 70 999.1
20260506161636 17 54 1.6 1.6 0.00 0.00 0.00 69 999.2
20260506161133 17 25 1.6 1.6 0.00 0.00 0.00 69 999.2
20260506160630 16 78 1.6 1.6 0.00 0.00 0.00 70 999.3
20260506160127 16 44 1.6 1.6 0.00 0.00 0.00 71 999.3
20260506155626 17 62 1.6 1.6 0.00 0.00 0.00 69 999.3
20260506155122 16 159 0.0 0.0 0.00 0.00 0.00 70 999.4
20260506153219 15 104 0.0 0.0 0.00 0.00 0.00 71 999.3
20260506152715 15 224 1.6 1.6 0.00 0.00 0.00 72 999.3
20260506152213 15 67 1.6 1.6 0.00 0.00 0.00 72 999.4
20260506151712 15 147 0.0 0.0 0.00 0.00 0.00 74 999.3
20260506151208 15 105 1.6 1.6 0.00 0.00 0.00 73 999.6
20260506150704 15 147 0.0 0.0 0.00 0.00 0.00 75 999.5
20260506150202 15 117 0.0 0.0 0.00 0.00 0.00 74 999.4
20260506145659 14 119 0.0 0.0 0.00 0.00 0.00 77 999.7
20260506145155 13 152 1.6 3.2 0.00 0.00 0.00 76 999.2
20260506144653 14 100 1.6 1.6 0.00 0.00 0.00 76 999.2
20260506144149 14 122 0.0 0.0 0.00 0.00 0.00 77 999.4
20260506143647 12 137 0.0 0.0 0.00 0.00 0.00 84 999.4
20260506143145 12 137 0.0 0.0 0.00 0.00 0.00 87 999.4
20260506142643 11 183 0.0 0.0 0.00 0.00 0.00 92 999.3
20260506142141 10 184 0.0 0.0 0.00 0.00 0.00 94 999.4
20260506141638 10 184 0.0 0.0 0.00 0.00 0.00 93 999.2
20260506141136 10 197 0.0 0.0 0.00 0.00 0.00 94 999.3
20260506140633 10 164 0.0 0.0 0.00 0.00 0.00 95 999.4
20260506140131 10 191 0.0 0.0 0.00 0.00 0.00 95 999.4
20260506135628 10 192 0.0 0.0 0.00 0.00 0.00 96 999.3
20260506135124 10 127 0.0 0.0 0.00 0.00 0.00 96 999.2
20260506134620 10 127 0.0 0.0 0.00 0.00 0.00 96 999.1
20260506134116 9 127 0.0 0.0 0.00 0.00 0.00 96 999.1
20260506133614 9 127 0.0 0.0 0.00 0.00 0.00 96 999.1
20260506133110 9 127 0.0 0.0 0.00 0.00 0.00 96 998.9
20260506132608 9 127 0.0 0.0 0.00 0.00 0.00 96 999.0
20260506132105 9 127 0.0 0.0 0.00 0.00 0.00 97 999.0
20260506131602 9 127 0.0 0.0 0.00 0.00 0.00 97 998.9
20260506131058 9 127 0.0 0.0 0.00 0.00 0.00 97 998.9